Location: Bosdarros
(43.2167°N, 0.3667°W)
Time: 11:23:23
(UTC+00:00)

FENGYUN 1C DEB - Pass Details

Date: 23 October 2021
Orbit: 805 x 871 km, 98.8° (Epoch: 26 November)

Event Time Altitude Azimuth Distance (km) Brightness Sun altitude
Exits shadow 19:19:11 53° 156° (SSE) 985 ? -24.9°
Maximum altitude 19:20:28 84° 76° (ENE) 816 ? -25.2°
Drops below altitude 10° 19:25:47 10° 347° (NNW) 2,404 ? -26.1°
Sets 19:28:08 0° 347° (NNW) 3,345 ? -26.6°
